This demonstration page uses our WeatherBlox Daily Observations layout. Learn more.

Left ArrowRight Arrow

44.89941, -97.11507

Hourly Observations for April 7, 2019

Temp ( °F °C ) Dew Point ( °F °C ) Humidity (%) Winds ( mph kmh ) Pressure ( in mb ) Visibility ( mi km ) Precip ( " mm )
12:07 am 00:07 Cloudy with Thunderstorms 51 10.6 49 9.4 92 92 SE 18 30 29.77 1008 3 5 0.02 0.51
12:29 am 00:29 Cloudy with Nearby Thunderstorms 53 11.7 50 10 89 89 SSE 12 19 29.75 1007 9 14 0.03 0.76
12:43 am 00:43 Cloudy 53 11.7 50 10 89 89 SE 12 19 29.75 1007 10 16 0.03 0.76
12:53 am 00:53 Cloudy 54 12.2 50 10 87 87 SE 18 30 29.76 1008 10 16 0.03 0.76
1:53 am 01:53 Cloudy 53 11.7 49 9.4 86 86 SSE 15 24 29.76 1008 10 16 0.00 0.00
2:53 am 02:53 Cloudy 52 11.1 49 9.4 89 89 SSE 15 24 29.73 1007 10 16 0.00 0.03
3:53 am 03:53 Clear 52 11.1 48 8.9 86 86 S 18 30 29.71 1006 10 16 0.00 0.00
4:53 am 04:53 Mostly Cloudy 51 10.6 48 8.9 89 89 S 14 22 29.70 1006 10 16 0.00 0.00
5:53 am 05:53 Partly Cloudy 50 10 47 8.3 89 89 S 9 15 29.72 1006 10 16 0.00 0.00
6:53 am 06:53 Mostly Cloudy 48 8.9 46 7.8 93 93 SW 6 9 29.75 1007 10 16 0.00 0.00
7:53 am 07:53 Cloudy 49 9.4 47 8.3 93 93 SW 6 9 29.77 1008 10 16 0.00 0.00
8:02 am 08:02 Cloudy 50 10 47 8.3 89 89 SW 6 9 29.77 1008 10 16 0.00 0.00
8:29 am 08:29 Cloudy with Rain 49 9.4 47 8.3 93 93 W 9 15 29.78 1009 2 3 0.04 1.02
8:40 am 08:40 Cloudy with Light Rain 50 10 49 9.4 96 96 W 9 15 29.78 1008 2 3 0.05 1.27
8:46 am 08:46 Cloudy with Nearby Thunderstorms 50 10 49 9.4 96 96 WNW 10 17 29.78 1008 2 3 0.05 1.27
8:53 am 08:53 Cloudy with Nearby Thunderstorms 50 10 49 9.4 96 96 NW 10 17 29.78 1009 1 2 0.05 1.27
8:57 am 08:57 Cloudy with Mist and Fog 49 9.4 48 8.9 97 97 NW 10 17 29.78 1009 1 2 0.00 0.00
9:13 am 09:13 Cloudy with Mist and Fog 49 9.4 48 8.9 97 97 NNW 15 24 29.78 1009 2 3 0.00 0.00
9:36 am 09:36 Cloudy with Mist and Fog 48 8.9 47 8.3 96 96 N 18 30 29.80 1009 3 4 0.00 0.00
9:53 am 09:53 Cloudy with Mist and Fog 47 8.3 46 7.8 97 97 NNW 13 20 29.81 1010 2 3 0.00 0.00
10:09 am 10:09 Cloudy with Mist and Fog 46 7.8 45 7.2 96 96 NNW 15 24 29.82 1010 3 5 0.00 0.00
10:53 am 10:53 Cloudy with Mist and Fog 48 8.9 46 7.8 93 93 NNW 10 17 29.82 1010 6 10 0.00 0.03
11:04 am 11:04 Cloudy with Mist and Fog 49 9.4 47 8.3 93 93 N 13 20 29.81 1010 6 10 0.00 0.00
11:53 am 11:53 Mostly Cloudy 52 11.1 48 8.9 86 86 NNW 16 26 29.83 1010 10 16 0.00 0.00
12:04 pm 12:04 Partly Cloudy 53 11.7 48 8.9 83 83 NNW 14 22 29.82 1010 10 16 0.00 0.00
12:53 pm 12:53 Sunny 57 13.9 45 7.2 64 64 NNW 13 20 29.82 1010 10 16 0.00 0.00
1:53 pm 13:53 Sunny 62 16.7 38 3.3 41 41 NW 18 30 29.81 1010 10 16 0.00 0.00
2:53 pm 14:53 Sunny 64 17.8 37 2.8 37 37 WNW 17 28 29.80 1009 10 16 0.00 0.00
3:53 pm 15:53 Sunny 64 17.8 34 1.1 33 33 WNW 14 22 29.81 1009 10 16 0.00 0.00
4:53 pm 16:53 Sunny 63 17.2 33 0.6 33 33 WNW 15 24 29.81 1010 10 16 0.00 0.00
5:53 pm 17:53 Sunny 63 17.2 33 0.6 33 33 WNW 17 28 29.83 1010 10 16 0.00 0.00
6:53 pm 18:53 Sunny 60 15.6 34 1.1 38 38 NW 7 11 29.84 1011 10 16 0.00 0.00
7:53 pm 19:53 Sunny 56 13.3 35 1.7 46 46 WNW 3 6 29.85 1011 10 16 0.00 0.00
8:53 pm 20:53 Clear 48 8.9 36 2.2 63 63 SW 6 9 29.86 1011 10 16 0.00 0.00
9:53 pm 21:53 Clear 46 7.8 36 2.2 68 68 Calm 29.88 1012 10 16 0.00 0.00
10:53 pm 22:53 Clear 44 6.7 36 2.2 73 73 SSE 5 7 29.87 1011 10 16 0.00 0.00
11:53 pm 23:53 Clear 43 6.1 37 2.8 80 80 SE 3 6 29.85 1011 10 16 0.00 0.00

Powered by AerisWeather